FW5398 Weather Reports


time (UTC)temp
F
wind
direction
speed
knots
gust
knots
rain 1hr
in
rain 24hr
in
rain mn
in
humidity
%
barometer
mb
20260504191607 45 230 13.0 19.1 0.00 0.46 0.23 80 999.4
20260504190049 43 233 12.2 17.4 0.00 0.46 0.23 82 999.4
20260504184546 41 230 10.4 20.0 0.00 0.46 0.23 83 999.3
20260504183046 42 234 10.4 14.8 0.00 0.46 0.23 83 999.3
20260504181544 41 207 8.7 15.6 0.00 0.46 0.23 84 999.1
20260504180041 40 226 9.6 15.6 0.00 0.46 0.23 84 999.1
20260504174539 40 231 10.4 15.6 0.00 0.46 0.23 84 998.8
20260504173037 40 234 12.2 17.4 0.00 0.46 0.23 84 998.7
20260504171534 40 230 11.3 18.2 0.00 0.46 0.23 84 998.2
20260504120107 34 264 17.4 24.3 0.02 0.42 0.19 85 990.3
20260504081557 36 262 11.3 17.4 0.05 0.38 0.15 85 977.7
20260504050025 40 344 0.0 1.7 0.00 0.23 0.00 83 975.2
20260504044522 40 344 0.9 3.5 0.00 0.23 0.00 82 975.5
20260504043021 40 347 0.9 3.5 0.00 0.23 0.00 82 975.8
20260504041518 40 18 1.7 2.6 0.00 0.23 0.00 82 976.0
20260504040016 40 220 1.7 7.0 0.00 0.23 0.00 82 976.4
20260504034513 41 145 2.6 14.8 0.00 0.23 0.00 81 976.5
20260504033012 41 163 5.2 14.8 0.00 0.23 0.00 82 977.0
20260504031512 42 155 6.1 14.8 0.00 0.23 0.00 81 977.4
20260504030006 42 170 1.7 13.9 0.00 0.23 0.00 81 977.9
20260504024504 42 129 4.3 14.8 0.00 0.23 0.23 81 978.2
20260504023004 42 16 4.3 12.2 0.00 0.23 0.23 81 977.9
20260504021600 42 122 4.3 17.4 0.00 0.23 0.23 81 978.7
20260504020106 42 121 5.2 20.0 0.00 0.23 0.23 81 979.5
20260504014605 42 218 8.7 21.7 0.00 0.23 0.23 81 979.4
20260504013056 42 345 5.2 26.1 0.00 0.23 0.23 80 979.4
20260504011552 42 106 6.1 26.9 0.00 0.23 0.23 81 980.7
20260504010057 42 45 12.2 28.7 0.00 0.23 0.23 81 981.2
20260504004548 43 209 7.8 31.3 0.00 0.23 0.23 80 982.4
20260504003045 43 172 10.4 29.5 0.01 0.23 0.23 81 982.3
20260504001543 42 351 11.3 26.9 0.02 0.23 0.23 82 983.0
20260504000139 42 110 8.7 22.6 0.02 0.23 0.23 82 984.3
20260503234539 41 74 13.0 26.1 0.02 0.23 0.23 82 985.5
20260503233031 41 101 6.1 24.3 0.02 0.22 0.22 82 986.9
20260503231529 41 55 6.1 15.6 0.03 0.21 0.21 83 988.0
20260503230034 40 24 4.3 16.5 0.07 0.21 0.21 83 989.5
20260503224521 39 110 6.1 13.9 0.09 0.21 0.21 84 991.0
20260503223019 39 342 4.3 13.9 0.09 0.20 0.20 84 992.0
20260503221517 39 35 4.3 9.6 0.08 0.18 0.18 83 992.9
20260503220021 39 36 4.3 8.7 0.05 0.14 0.14 83 993.5
20260503214514 39 42 1.7 7.0 0.04 0.12 0.12 82 994.2
20260503213004 40 70 2.6 7.8 0.03 0.11 0.11 82 994.5
20260503211504 41 10 4.3 0.0 0.00 0.00 0.10 83 994.4
20260503210001 41 353 2.6 9.6 0.04 0.09 0.09 83 995.4
20260503204601 41 31 3.5 16.5 0.05 0.08 0.08 82 995.5
20260503203058 41 31 7.8 13.0 0.06 0.08 0.08 82 996.3
20260503201553 42 121 6.1 11.3 0.05 0.06 0.06 81 997.2
20260503200050 42 20 2.6 9.6 0.05 0.05 0.05 80 998.6
20260503194601 42 345 4.3 11.3 0.03 0.03 0.03 79 998.8
20260503193044 43 10 3.5 13.0 0.02 0.02 0.02 83 999.5